TimeCST,TemperatureF,Dew PointF,Humidity,Sea Level PressureIn,VisibilityMPH,Wind Direction,Wind SpeedMPH,Gust SpeedMPH,PrecipitationIn,Events,Conditions,WindDirDegrees,DateUTC
12:54 AM,27.0,18.0,69,30.06,10.0,NW,8.1,-,N/A,,Clear,320,2011-11-30 06:54:00
1:54 AM,26.1,18.0,71,30.07,10.0,NNW,9.2,-,N/A,,Clear,330,2011-11-30 07:54:00
2:54 AM,25.0,17.1,72,30.06,10.0,NNW,8.1,-,N/A,,Clear,330,2011-11-30 08:54:00
3:54 AM,24.1,17.1,75,30.06,10.0,NNW,6.9,-,N/A,,Clear,330,2011-11-30 09:54:00
4:54 AM,23.0,17.1,78,30.08,10.0,NW,4.6,-,N/A,,Clear,320,2011-11-30 10:54:00
5:54 AM,21.9,16.0,78,30.10,10.0,NNW,4.6,-,N/A,,Clear,330,2011-11-30 11:54:00
6:54 AM,21.9,15.1,75,30.10,10.0,Calm,Calm,-,N/A,,Clear,0,2011-11-30 12:54:00
7:54 AM,23.0,16.0,74,30.12,10.0,Calm,Calm,-,N/A,,Clear,0,2011-11-30 13:54:00
8:54 AM,28.0,19.0,69,30.13,10.0,NW,4.6,-,N/A,,Clear,320,2011-11-30 14:54:00
9:54 AM,32.0,19.0,59,30.14,10.0,WNW,3.5,-,N/A,,Partly Cloudy,290,2011-11-30 15:54:00
10:54 AM,37.0,18.0,46,30.13,10.0,WNW,4.6,-,N/A,,Partly Cloudy,300,2011-11-30 16:54:00
11:54 AM,39.0,16.0,39,30.11,10.0,WSW,4.6,-,N/A,,Scattered Clouds,240,2011-11-30 17:54:00
12:54 PM,42.1,15.1,34,30.09,10.0,WSW,5.8,-,N/A,,Scattered Clouds,240,2011-11-30 18:54:00
1:54 PM,43.0,10.9,27,30.08,10.0,SW,8.1,-,N/A,,Mostly Cloudy,230,2011-11-30 19:54:00
2:54 PM,41.0,7.0,25,30.09,10.0,WSW,6.9,-,N/A,,Mostly Cloudy,240,2011-11-30 20:54:00
3:54 PM,39.0,17.1,41,30.12,10.0,SW,5.8,-,N/A,,Mostly Cloudy,230,2011-11-30 21:54:00
4:54 PM,35.6,21.2,56,30.09,10.0,SSW,6.9,-,N/A,,Overcast,200,2011-11-30 22:54:00
5:54 PM,32.0,21.0,64,30.12,10.0,South,6.9,-,N/A,,Mostly Cloudy,190,2011-11-30 23:54:00
6:54 PM,33.1,21.0,61,30.12,10.0,South,8.1,-,N/A,,Overcast,180,2011-12-01 00:54:00
7:54 PM,33.1,19.9,59,30.14,10.0,South,4.6,-,N/A,,Overcast,190,2011-12-01 01:54:00
8:54 PM,32.0,21.0,64,30.15,10.0,SW,3.5,-,N/A,,Overcast,220,2011-12-01 02:54:00
9:54 PM,32.0,21.9,66,30.15,10.0,South,4.6,-,N/A,,Overcast,180,2011-12-01 03:54:00
10:54 PM,32.0,21.9,66,30.17,10.0,South,4.6,-,N/A,,Overcast,180,2011-12-01 04:54:00
11:54 PM,32.0,21.0,64,30.19,10.0,Calm,Calm,-,N/A,,Overcast,0,2011-12-01 05:54:00